Regional Weather Roundup
Issued by NWS Bismarck, ND

Home | Current Version | Previous Version | Text Only | Print | Product List | Glossary On
Versions: 1 2 3 4 5 6 7 8 9 10 11 12 13 14 15 16 17 18 19 20 21 22 23 24 25 26 27 28 29 30 31 32 33 34 35 36 37 38 39 40 41 42 43 44 45 46 47 48 49 50
000
ASUS43 KBIS 172020
RWRBIS

NWR BROADCAST TEXT
NATIONAL WEATHER SERVICE BISMARCK ND
300 PM CDT WED SEP 17 2014

NOTE: "FAIR" INDICATES FEW OR NO CLOUDS BELOW 12,000 FEET WITH NO
SIGNIFICANT WEATHER AND/OR OBSTRUCTIONS TO VISIBILITY.


CITY           SKY/WX    TMP DP  RH WIND       PRES   REMARKS
WILLISTON      SUNNY     78  41  26 SE13      29.94S
MINOT          SUNNY     70  49  47 NE9       29.99S
MINOT AFB      SUNNY     67  50  54 NE12      29.99S
BISMARCK       MOSUNNY   76  49  38 S7        29.97S
DICKINSON      CLOUDY    68  47  46 E14       29.95F
GARRISON         N/A     73  45  36 SE8       29.98S
HETTINGER ARPT PTSUNNY   71  48  43 SE8       29.97F
JAMESTOWN      SUNNY     72  47  40 VRB3      29.97S
BEACH            N/A     66  46  48 E12       29.96S
CARRINGTON     FAIR      72  48  43 E9        30.00S
CROSBY         FAIR      68  48  49 E16       29.97F
HARVEY         FAIR      68  48  49 NE10      30.00S
HAZEN          FAIR      72  45  37 SE9       29.98R
LINTON         FAIR      75  46  35 SE8       29.96S
MANDAN         FAIR      73  46  38 SE7       29.98S
OAKES            N/A     73  46  38 NE13      29.97S
RUGBY          FAIR      63  48  59 E12G17    30.02S
STANLEY        FAIR      72  43  35 SE10G17   29.98S
TIOGA          FAIR      73  39  29 SE12      30.00S
WATFORD CITY   FAIR      75  39  27 SE14G22   29.93F
$$

CITY           SKY/WX    TMP DP  RH WIND       PRES   REMARKS
GRAND FORKS    MOSUNNY   64  50  60 N13       30.01S
GRAND FORKS AF MOSUNNY   61  52  72 NE13G20   30.03S
DEVILS LAKE    SUNNY     61  46  59 E9        30.01S
FARGO          SUNNY     73  49  42 N9        29.96S
CANDO          FAIR      63  46  55 NE7       30.04S
CAVALIER       FAIR      55  45  67 NE8       30.07S
GRAFTON        FAIR      57  46  67 N10       30.04S
GWINNER        CLEAR     73  46  38 NE9       29.97S
LANGDON        FAIR      55  43  62 NE9G17    30.05F
ROLLA          FAIR      57  45  62 E8        30.06S
WALHALLA         N/A     52  45  76 NE9G16    30.08F
$$

CITY           SKY/WX    TMP DP  RH WIND       PRES   REMARKS
ABERDEEN       SUNNY     71  49  45 NE10      29.95F
MOBRIDGE       PTSUNNY   76  48  37 VRB7      29.92F
BUFFALO          N/A     76  51  41 E12       29.90R
RAPID CITY     MOSUNNY   76  49  38 S5        29.95F
GLASGOW        SUNNY     76  49  38 SE12      29.87F
SIDNEY         SUNNY     79  43  27 SE9       29.93F
WOLF POINT     SUNNY     80  46  30 S9G18     29.89F
GLENDIVE       MOSUNNY   73  50  43 E16       29.92F
MILES CITY     SUNNY     79  48  33 VRB3      29.88F
BAKER          PTSUNNY   69  49  48 MISG      29.96R
$$

CITY           SKY/WX    TMP DP  RH WIND       PRES   REMARKS
BILLINGS       MOSUNNY   84  45  25 SW9       29.90F
GREAT FALLS    SUNNY     82  48  30 S6        29.86F
REGINA         MOSUNNY   66  50  55 SE17G23   29.95
ESTEVAN        MOSUNNY   61  50  67 E13       30.00F
$$



USA.gov is the U.S. government's official web portal to all federal, state and local government web resources and services.